Location: Risskov
(56.1972°N, 10.2480°E)
Time: 00:34:57
(UTC+00:00)

PSLV R/B - Pass Details

Date: 05 July 2020
Orbit: 597 x 702 km, 97.9° (Epoch: 03 August)

Event Time Altitude Azimuth Distance (km) Brightness Sun altitude
Rises 23:27:00 0° 19° (NNE) 2,859 8.6 -11.1°
Reaches altitude 10° 23:29:15 10° 26° (NNE) 1,952 7.3 -11.1°
Maximum altitude 23:33:18 44° 99° (E) 846 4.2 -11.1°
Enters shadow 23:36:34 15° 168° (SSE) 1,654 5.1 -11.1°
